Location: Krakow
(50.0212°N, 19.9423°E)
Time: 14:07:23
(UTC+02:00)

NOAA 18 - Pass Details

Date: 06 May 2025
Orbit: 837 x 857 km, 98.8° (Epoch: 14 May)

Event Time Altitude Azimuth Distance (km) Brightness Sun altitude
Exits shadow 00:44:34 - 255° (WSW) 2,610 7.6 -23.4°
Reaches altitude 10° 00:45:43 10° 266° (W) 2,494 7.6 -23.4°
Maximum altitude 00:46:45 11° 277° (W) 2,460 7.7 -23.4°
Drops below altitude 10° 00:47:48 10° 288° (WNW) 2,497 7.8 -23.4°
Sets 00:52:45 0° 327° (NNW) 3,440 9.2 -23.3°
